N1OTX Weather Reports


time (UTC)temp
C
wind
direction
speed
KPH
gust
KPH
rain 1hr
cm
rain 24hr
cm
rain mn
cm
humidity
%
barometer
mb
20260509061527 3 0.0 0.0 0.00 0.00 0.00 88 1014.0
20260509061047 3 0.0 0.0 0.00 0.00 0.00 88 1014.0
20260509060527 3 0.0 0.0 0.00 0.00 0.00 88 1013.8
20260509060029 3 0.0 0.0 0.00 0.00 0.00 88 1013.9
20260509055529 3 0.0 0.0 0.00 0.00 0.00 88 1013.9
20260509055029 3 0.0 0.0 0.00 0.00 0.00 87 1014.1
20260509054528 3 0.0 0.0 0.00 0.00 0.00 88 1014.1
20260509054028 3 0.0 0.0 0.00 0.00 0.00 88 1014.1
20260509053528 3 0.0 0.0 0.00 0.00 0.00 88 1014.1
20260509053028 3 0.0 0.0 0.00 0.00 0.00 87 1014.1
20260509052528 3 0.0 0.0 0.00 0.00 0.00 87 1014.1
20260509052048 3 0.0 0.0 0.00 0.00 0.00 88 1014.1
20260509051527 3 0.0 0.0 0.00 0.00 0.00 86 1014.0
20260509051049 3 0.0 0.0 0.00 0.00 0.00 85 1013.9
20260509050527 3 0.0 0.0 0.00 0.00 0.00 85 1013.9
20260509050028 3 0.0 0.0 0.00 0.00 0.00 84 1014.0
20260509045528 4 0.0 0.0 0.00 0.00 0.00 85 1013.9
20260509045028 4 0.0 0.0 0.00 0.00 0.00 84 1013.9
20260509044548 4 0.0 0.0 0.00 0.00 0.00 85 1013.9
20260509044028 4 0.0 0.0 0.00 0.00 0.00 84 1013.9
20260509043528 4 0.0 0.0 0.00 0.00 0.00 84 1013.9
20260509043028 4 0.0 0.0 0.00 0.00 0.00 84 1013.9
20260509042528 4 0.0 0.0 0.00 0.00 0.00 83 1013.9
20260509042048 4 0.0 0.0 0.00 0.00 0.00 82 1013.8
20260509041529 5 0.0 0.0 0.00 0.00 0.00 83 1013.7
20260509041027 5 0.0 0.0 0.00 0.00 0.00 81 1013.6
20260509040527 5 0.0 0.0 0.00 0.00 0.00 80 1013.6
20260509040027 5 0.0 0.0 0.00 0.00 0.00 79 1013.6
20260509035527 5 0.0 0.0 0.00 0.00 0.00 79 1013.6
20260509035029 5 0.0 0.0 0.00 0.00 0.00 78 1013.5
20260509034549 5 0.0 0.0 0.00 0.00 0.00 77 1013.5
20260509034029 5 0.0 0.0 0.00 0.00 0.00 76 1013.6
20260509033528 5 0.0 0.0 0.00 0.00 0.00 77 1013.6
20260509033048 5 0.0 0.0 0.00 0.00 0.00 76 1013.5
20260509032528 5 0.0 0.0 0.00 0.00 0.00 76 1013.5
20260509032048 5 0.0 0.0 0.00 0.00 0.00 76 1013.5
20260509031528 5 0.0 0.0 0.00 0.00 0.00 76 1013.4
20260509031028 5 0.0 0.0 0.00 0.00 0.00 76 1013.4
20260509030528 6 0.0 0.0 0.00 0.00 0.00 74 1013.4
20260509030048 6 0.0 0.0 0.00 0.00 0.00 74 1013.3
20260509025527 6 0.0 0.0 0.00 0.00 0.00 74 1013.4
20260509025027 6 0.0 0.0 0.00 0.00 0.00 73 1013.4
20260509024527 6 0.0 0.0 0.00 0.00 0.00 73 1013.3
20260509024047 6 0.0 0.0 0.00 0.00 0.00 72 1013.3
20260509023529 6 0.0 0.0 0.00 0.00 0.00 73 1013.3
20260509023029 6 0.0 0.0 0.00 0.00 0.00 73 1013.4
20260509022549 6 0.0 0.0 0.00 0.00 0.00 71 1013.3
20260509022029 7 0.0 0.0 0.00 0.00 0.00 71 1013.2
20260509021528 7 0.0 0.0 0.00 0.00 0.00 70 1013.1
20260509021048 7 0.0 0.0 0.00 0.00 0.00 70 1013.0
20260509020528 7 0.0 0.0 0.00 0.00 0.00 69 1012.9
20260509020028 7 0.0 0.0 0.00 0.00 0.00 68 1012.8
20260509015528 8 0.0 0.0 0.00 0.00 0.00 65 1012.8
20260509015028 8 0.0 0.0 0.00 0.00 0.00 61 1012.7
20260509014528 8 0.0 0.0 0.00 0.00 0.00 62 1012.8
20260509014027 8 0.0 0.0 0.00 0.00 0.00 62 1012.6
20260509013527 8 0.0 0.0 0.00 0.00 0.00 60 1012.6
20260509013027 8 0.0 0.0 0.00 0.00 0.00 61 1012.4
20260509012547 8 16 0.0 1.6 0.00 0.00 0.00 63 1012.3
20260509012027 9 0.0 0.0 0.00 0.00 0.00 62 1012.1
20260509011529 9 0.0 0.0 0.00 0.00 0.00 61 1012.0
20260509011029 9 0.0 0.0 0.00 0.00 0.00 61 1011.9
20260509010609 9 0.0 0.0 0.00 0.00 0.00 61 1011.8
20260509010049 9 0.0 0.0 0.00 0.00 0.00 60 1011.8
20260509005528 9 0.0 0.0 0.00 0.00 0.00 60 1011.7
20260509005028 9 0.0 1.6 0.00 0.00 0.00 60 1011.5
20260509004528 9 16 0.0 1.6 0.00 0.00 0.00 60 1011.3
20260509004028 9 0.0 0.0 0.00 0.00 0.00 60 1011.2
20260509003528 10 0.0 0.0 0.00 0.00 0.00 58 1011.1
20260509003048 10 0.0 0.0 0.00 0.00 0.00 57 1011.1
20260509002527 10 0.0 0.0 0.00 0.00 0.00 56 1010.8
20260509002027 10 0.0 0.0 0.00 0.00 0.00 54 1010.7
20260509001527 10 0.0 0.0 0.00 0.00 0.00 54 1010.6
20260509001047 11 0.0 0.0 0.00 0.00 0.00 53 1010.6
20260509000527 11 16 0.0 1.6 0.00 0.00 0.00 50 1010.5
20260509000029 11 43 0.0 1.6 0.00 0.00 0.00 48 1010.5
20260508235549 11 43 0.0 3.2 0.00 0.00 0.00 46 1010.3
20260508235029 11 94 0.0 3.2 0.00 0.00 0.00 46 1010.3
20260508234528 11 103 0.0 1.6 0.00 0.00 0.00 46 1010.1
20260508234028 12 0.0 3.2 0.00 0.00 0.00 46 1010.0
20260508233528 12 173 0.0 3.2 0.00 0.00 0.00 45 1010.0
20260508233028 12 309 0.0 11.3 0.00 0.00 0.00 44 1009.9
20260508232528 12 212 1.6 12.9 0.00 0.00 0.00 43 1009.9
20260508232028 12 181 1.6 3.2 0.00 0.00 0.00 43 1009.8
20260508231527 12 134 1.6 4.8 0.00 0.00 0.00 43 1009.7
20260508231027 12 358 0.0 3.2 0.00 0.00 0.00 43 1009.7
20260508230527 12 290 1.6 3.2 0.00 0.00 0.00 44 1009.7
20260508230027 12 278 0.0 3.2 0.00 0.00 0.00 42 1009.7
20260508225527 12 44 1.6 4.8 0.00 0.00 0.00 42 1009.5
20260508225027 13 28 1.6 6.4 0.00 0.00 0.00 41 1009.4
20260508224529 13 197 1.6 9.7 0.00 0.00 0.00 40 1009.4
20260508224049 13 348 1.6 4.8 0.00 0.00 0.00 40 1009.4
20260508223528 13 169 1.6 4.8 0.00 0.00 0.00 40 1009.4
20260508223053 13 231 0.0 3.2 0.00 0.00 0.00 39 1009.4
20260508222528 13 22 0.0 3.2 0.00 0.00 0.00 36 1009.4
20260508222028 13 31 0.0 3.2 0.00 0.00 0.00 32 1009.3
20260508221528 13 9 1.6 6.4 0.00 0.00 0.00 33 1009.4
20260508221108 14 286 1.6 6.4 0.00 0.00 0.00 33 1009.4
20260508220528 14 23 3.2 11.3 0.00 0.00 0.00 33 1009.4
20260508220028 14 351 1.6 9.7 0.00 0.00 0.00 33 1009.3
20260508215527 14 356 1.6 12.9 0.00 0.00 0.00 33 1009.3
20260508215027 14 302 1.6 12.9 0.00 0.00 0.00 34 1009.3
20260508214527 14 25 1.6 4.8 0.00 0.00 0.00 34 1009.1
20260508214027 14 343 1.6 6.4 0.00 0.00 0.00 34 1009.1
20260508213526 14 9 3.2 9.7 0.00 0.00 0.00 34 1009.1
20260508213029 14 10 3.2 9.7 0.00 0.00 0.00 34 1009.1
20260508212529 14 36 1.6 6.4 0.00 0.00 0.00 34 1009.0
20260508212029 14 14 3.2 9.7 0.00 0.00 0.00 34 1009.1
20260508211548 14 344 3.2 9.7 0.00 0.00 0.00 35 1009.1
20260508211028 14 34 1.6 4.8 0.00 0.00 0.00 35 1009.0
20260508210548 14 33 3.2 11.3 0.00 0.00 0.00 35 1009.1
20260508210028 14 195 3.2 6.4 0.00 0.00 0.00 35 1009.0
20260508205528 14 353 1.6 3.2 0.00 0.00 0.00 37 1009.0
20260508205028 14 6 1.6 4.8 0.00 0.00 0.00 37 1009.0
20260508204528 14 330 1.6 6.4 0.00 0.00 0.00 35 1008.9
20260508204027 14 12 3.2 6.4 0.00 0.00 0.00 35 1008.9
20260508203527 14 337 1.6 4.8 0.00 0.00 0.00 35 1008.9
20260508203027 14 6 3.2 11.3 0.00 0.00 0.00 37 1009.0
20260508202527 14 17 3.2 6.4 0.00 0.00 0.00 36 1008.9
20260508202027 15 349 1.6 6.4 0.00 0.00 0.00 36 1008.9
20260508201527 15 23 3.2 11.3 0.00 0.00 0.00 33 1008.9
20260508201027 15 37 3.2 9.7 0.00 0.00 0.00 36 1008.9
20260508200527 15 39 3.2 9.7 0.00 0.00 0.00 35 1008.7
20260508200027 15 6 4.8 9.7 0.00 0.00 0.00 35 1008.8
20260508195527 15 3 3.2 9.7 0.00 0.00 0.00 35 1008.7
20260508195028 15 16 3.2 6.4 0.00 0.00 0.00 36 1008.6
20260508194528 15 354 3.2 6.4 0.00 0.00 0.00 34 1008.6
20260508194030 15 28 3.2 6.4 0.00 0.00 0.00 34 1008.5
20260508193548 15 350 3.2 9.7 0.00 0.00 0.00 35 1008.6
20260508193028 15 5 1.6 4.8 0.00 0.00 0.00 34 1008.6
20260508192528 14 302 3.2 9.7 0.00 0.00 0.00 34 1008.6
20260508192028 15 332 3.2 6.4 0.00 0.00 0.00 32 1008.7
20260508191528 15 326 3.2 11.3 0.00 0.00 0.00 34 1008.6
20260508191027 15 355 4.8 12.9 0.00 0.00 0.00 31 1008.6
20260508190527 15 18 3.2 11.3 0.00 0.00 0.00 33 1008.5
20260508190027 15 4 3.2 9.7 0.00 0.00 0.00 32 1008.6
20260508185528 15 30 3.2 9.7 0.00 0.00 0.00 33 1008.7
20260508185028 15 4 1.6 14.5 0.00 0.00 0.00 32 1008.6
20260508184528 15 59 3.2 14.5 0.00 0.00 0.00 31 1008.6
20260508184027 15 21 3.2 9.7 0.00 0.00 0.00 33 1008.7
20260508183527 15 320 3.2 14.5 0.00 0.00 0.00 32 1008.7
20260508183027 15 214 3.2 14.5 0.00 0.00 0.00 33 1008.7
20260508182547 15 347 3.2 9.7 0.00 0.00 0.00 33 1008.7
20260508182027 15 258 3.2 6.4 0.00 0.00 0.00 35 1008.7
20260508181527 15 30 3.2 9.7 0.00 0.00 0.00 36 1008.7
20260508181027 15 5 3.2 11.3 0.00 0.00 0.00 35 1008.7
20260508180529 15 275 3.2 16.1 0.00 0.00 0.00 35 1008.7
20260508180028 15 2 4.8 14.5 0.00 0.00 0.00 34 1008.7
20260508175528 14 35 3.2 6.4 0.00 0.00 0.00 35 1008.6
20260508175028 14 1 3.2 12.9 0.00 0.00 0.00 35 1008.7
20260508174528 15 15 3.2 11.3 0.00 0.00 0.00 35 1008.7
20260508174028 15 354 3.2 11.3 0.00 0.00 0.00 34 1008.8
20260508173528 15 317 3.2 14.5 0.00 0.00 0.00 35 1008.8
20260508173048 15 39 3.2 9.7 0.00 0.00 0.00 34 1008.8
20260508172529 16 350 3.2 6.4 0.00 0.00 0.00 34 1008.8
20260508172048 16 251 3.2 9.7 0.00 0.00 0.00 35 1008.7
20260508171528 15 38 3.2 9.7 0.00 0.00 0.00 35 1008.8
20260508171048 15 359 4.8 9.7 0.00 0.00 0.00 35 1008.7
20260508170528 15 34 3.2 9.7 0.00 0.00 0.00 37 1008.7
20260508170028 15 7 3.2 11.3 0.00 0.00 0.00 35 1008.7
20260508165527 15 15 4.8 11.3 0.00 0.00 0.00 36 1008.7
20260508165032 15 140 3.2 11.3 0.00 0.00 0.00 34 1008.6
20260508164526 15 68 3.2 11.3 0.00 0.00 0.00 35 1008.6
20260508164027 15 25 1.6 6.4 0.00 0.00 0.00 35 1008.7
20260508163608 16 6 3.2 6.4 0.00 0.00 0.00 34 1008.7
20260508163029 16 10 3.2 9.7 0.00 0.00 0.00 36 1008.7
20260508162529 15 6 3.2 11.3 0.00 0.00 0.00 35 1008.6
20260508162028 15 340 3.2 11.3 0.00 0.00 0.00 34 1008.7
20260508161628 15 356 3.2 9.7 0.00 0.00 0.00 33 1008.8
20260508161028 16 28 3.2 9.7 0.00 0.00 0.00 35 1008.7
20260508160528 16 16 3.2 6.4 0.00 0.00 0.00 35 1008.8
20260508160028 15 291 1.6 9.7 0.00 0.00 0.00 36 1009.0
20260508155528 15 191 3.2 11.3 0.00 0.00 0.00 36 1009.0
20260508155028 14 163 1.6 16.1 0.00 0.00 0.00 36 1009.1
20260508154527 14 342 1.6 4.8 0.00 0.00 0.00 36 1009.1
20260508154027 14 239 1.6 9.7 0.00 0.00 0.00 37 1009.2
20260508153527 13 21 3.2 6.4 0.00 0.00 0.00 37 1009.3
20260508153047 14 358 3.2 6.4 0.00 0.00 0.00 35 1009.2
20260508152527 15 35 3.2 9.7 0.00 0.00 0.00 36 1009.2
20260508152026 14 255 3.2 12.9 0.00 0.00 0.00 37 1009.2
20260508151528 14 39 3.2 6.4 0.00 0.00 0.00 36 1009.2
20260508151028 14 1 3.2 16.1 0.00 0.00 0.00 37 1009.3
20260508150528 14 16 1.6 9.7 0.00 0.00 0.00 37 1009.3
20260508150028 13 6 3.2 9.7 0.00 0.00 0.00 38 1009.4
20260508145528 13 11 4.8 11.3 0.00 0.00 0.00 35 1009.5
20260508145028 13 11 3.2 6.4 0.00 0.00 0.00 35 1009.4
20260508144527 13 4 3.2 6.4 0.00 0.00 0.00 36 1009.5
20260508144027 14 17 3.2 9.7 0.00 0.00 0.00 35 1009.3
20260508143547 14 341 3.2 9.7 0.00 0.00 0.00 37 1009.4
20260508143029 14 315 3.2 11.3 0.00 0.00 0.00 37 1009.5
20260508142527 14 245 1.6 11.3 0.00 0.00 0.00 38 1009.5
20260508142027 13 349 3.2 11.3 0.00 0.00 0.00 35 1009.5
20260508141529 13 346 3.2 12.9 0.00 0.00 0.00 37 1009.6
20260508141029 13 19 3.2 6.4 0.00 0.00 0.00 36 1009.5
20260508140529 13 348 3.2 11.3 0.00 0.00 0.00 37 1009.6
20260508140029 12 12 4.8 11.3 0.00 0.00 0.00 36 1009.7
20260508135528 13 350 3.2 9.7 0.00 0.00 0.00 36 1009.8
20260508135028 13 352 3.2 9.7 0.00 0.00 0.00 37 1009.9
20260508134528 12 341 3.2 9.7 0.00 0.00 0.00 39 1010.0
20260508134048 12 5 4.8 12.9 0.00 0.00 0.00 38 1009.9
20260508133528 12 30 3.2 12.9 0.00 0.00 0.00 37 1010.0
20260508133027 12 303 3.2 6.4 0.00 0.00 0.00 40 1010.0
20260508132528 12 22 3.2 6.4 0.00 0.00 0.00 39 1010.1
20260508132027 12 333 1.6 4.8 0.00 0.00 0.00 41 1010.0
20260508131527 12 44 1.6 12.9 0.00 0.00 0.00 40 1010.2
20260508131108 12 323 1.6 6.4 0.00 0.00 0.00 41 1010.1
20260508130527 12 16 1.6 4.8 0.00 0.00 0.00 44 1010.1
20260508130029 12 33 1.6 6.4 0.00 0.00 0.00 41 1010.1
20260508125547 12 0 1.6 6.4 0.00 0.00 0.00 46 1010.1
20260508125027 11 71 1.6 9.7 0.00 0.00 0.00 45 1010.1
20260508124549 11 102 1.6 6.4 0.00 0.00 0.00 45 1010.1
20260508124029 11 13 1.6 6.4 0.00 0.00 0.00 47 1010.2
20260508123528 11 287 1.6 6.4 0.00 0.00 0.00 46 1010.2
20260508123028 11 313 1.6 4.8 0.00 0.00 0.00 47 1010.3
20260508122528 11 337 1.6 6.4 0.00 0.00 0.00 47 1010.3
20260508122028 11 27 1.6 3.2 0.00 0.00 0.00 46 1010.2
20260508121528 11 313 1.6 6.4 0.00 0.00 0.00 47 1010.3
20260508121028 10 313 1.6 6.4 0.00 0.00 0.00 48 1010.1
20260508120527 10 325 1.6 6.4 0.00 0.00 0.00 47 1010.2
20260508120027 10 321 1.6 3.2 0.00 0.00 0.00 47 1010.1
20260508115527 10 13 1.6 4.8 0.00 0.00 0.00 47 1010.2
20260508115027 10 40 1.6 3.2 0.00 0.00 0.00 49 1010.2
20260508114527 10 14 1.6 3.2 0.00 0.00 0.00 49 1010.2
20260508114027 10 29 0.0 3.2 0.00 0.00 0.00 51 1010.2
20260508113529 9 10 1.6 3.2 0.00 0.00 0.00 52 1010.2
20260508113029 9 295 0.0 3.2 0.00 0.00 0.00 54 1010.1
20260508112527 8 25 1.6 3.2 0.00 0.00 0.00 53 1010.2
20260508112027 8 257 0.0 3.2 0.00 0.00 0.00 56 1010.1
20260508111527 8 107 0.0 4.8 0.00 0.00 0.00 59 1010.1
20260508111027 7 185 0.0 1.6 0.00 0.00 0.00 63 1010.2
20260508110529 7 185 0.0 1.6 0.00 0.00 0.00 69 1010.2
20260508110028 6 0.0 0.0 0.00 0.00 0.00 75 1010.1
20260508105527 5 0.0 0.0 0.00 0.00 0.00 82 1009.9
20260508105047 5 186 0.0 1.6 0.00 0.00 0.00 81 1009.9
20260508104529 4 0.0 0.0 0.00 0.00 0.00 81 1009.9
20260508104049 4 0.0 0.0 0.00 0.00 0.00 82 1009.8
20260508103528 3 0.0 0.0 0.00 0.00 0.00 82 1009.8
20260508103048 3 0.0 0.0 0.00 0.00 0.00 82 1009.7
20260508102528 3 0.0 0.0 0.00 0.00 0.00 84 1009.6
20260508102028 3 0.0 0.0 0.00 0.00 0.00 83 1009.7
20260508101528 3 0.0 0.0 0.00 0.00 0.00 82 1009.5
20260508101028 3 0.0 0.0 0.00 0.00 0.00 83 1009.4
20260508100528 3 0.0 0.0 0.00 0.00 0.00 83 1009.4
20260508100028 3 0.0 0.0 0.00 0.00 0.00 82 1009.3
20260508095528 3 0.0 0.0 0.00 0.00 0.00 82 1009.3
20260508095028 3 0.0 0.0 0.00 0.03 0.00 83 1009.3
20260508094528 3 0.0 0.0 0.00 0.03 0.00 82 1009.2
20260508094048 3 0.0 0.0 0.00 0.05 0.00 82 1009.2
20260508093527 3 0.0 0.0 0.00 0.05 0.00 82 1009.2
20260508093048 3 0.0 0.0 0.00 0.05 0.00 83 1009.3
20260508092528 3 0.0 0.0 0.00 0.05 0.00 83 1009.2
20260508092028 2 0.0 0.0 0.00 0.05 0.00 82 1009.2
20260508091528 2 0.0 0.0 0.00 0.10 0.00 82 1009.2
20260508091048 2 0.0 0.0 0.00 0.13 0.00 82 1009.2
20260508090528 2 0.0 0.0 0.00 0.13 0.00 82 1009.2
20260508090048 2 0.0 0.0 0.00 0.15 0.00 83 1009.2
20260508085527 2 0.0 0.0 0.00 0.15 0.00 83 1009.1
20260508085027 2 0.0 0.0 0.00 0.15 0.00 83 1009.1
20260508084527 2 0.0 0.0 0.00 0.18 0.00 84 1009.1
20260508084029 2 0.0 0.0 0.00 0.18 0.00 84 1009.1
20260508083549 2 0.0 0.0 0.00 0.18 0.00 84 1009.1
20260508083049 2 0.0 0.0 0.00 0.18 0.00 83 1009.0
20260508082529 2 0.0 0.0 0.00 0.18 0.00 82 1008.9
20260508082028 2 0.0 0.0 0.00 0.18 0.00 83 1008.8
20260508081528 2 0.0 0.0 0.00 0.18 0.00 84 1008.8
20260508081109 2 0.0 0.0 0.00 0.18 0.00 84 1008.7
20260508080528 2 0.0 0.0 0.00 0.18 0.00 83 1008.6
20260508080028 3 0.0 0.0 0.00 0.18 0.00 81 1008.5
20260508075548 3 0.0 0.0 0.00 0.18 0.00 80 1008.4
20260508075048 3 0.0 0.0 0.00 0.18 0.00 80 1008.4
20260508074528 3 0.0 0.0 0.00 0.20 0.00 80 1008.2
20260508074027 3 0.0 0.0 0.00 0.20 0.00 81 1008.0
20260508073527 3 0.0 0.0 0.00 0.23 0.00 81 1007.9
20260508073027 3 0.0 0.0 0.00 0.23 0.00 80 1007.8
20260508072527 3 0.0 0.0 0.00 0.23 0.00 79 1007.8
20260508072027 3 0.0 0.0 0.00 0.23 0.00 78 1007.7
20260508071529 3 0.0 0.0 0.00 0.23 0.00 77 1007.7
20260508071028 3 0.0 0.0 0.00 0.23 0.00 76 1007.7
20260508070529 3 0.0 0.0 0.00 0.23 0.00 75 1007.7
20260508070028 4 0.0 0.0 0.00 0.23 0.00 75 1007.7
20260508065526 4 0.0 0.0 0.00 0.23 0.00 75 1007.7
20260508065028 4 0.0 0.0 0.00 0.23 0.00 75 1007.8
20260508064528 4 0.0 0.0 0.00 0.23 0.00 74 1007.8
20260508064028 5 0.0 0.0 0.00 0.23 0.00 73 1007.7
20260508063527 5 0.0 0.0 0.00 0.23 0.00 73 1007.7
20260508063028 5 0.0 0.0 0.00 0.23 0.00 73 1007.7
20260508062528 5 0.0 0.0 0.00 0.23 0.00 74 1007.7
20260508062027 5 0.0 0.0 0.00 0.23 0.00 71 1007.7